TimeEDT,TemperatureF,Dew PointF,Humidity,Sea Level PressureIn,VisibilityMPH,Wind Direction,Wind SpeedMPH,Gust SpeedMPH,PrecipitationIn,Events,Conditions,WindDirDegrees,DateUTC
12:53 AM,46.0,43.0,89,30.11,10.0,Calm,Calm,-,N/A,,Clear,0,2013-10-12 04:53:00
1:53 AM,46.0,42.1,86,30.11,10.0,Calm,Calm,-,N/A,,Clear,0,2013-10-12 05:53:00
2:53 AM,45.0,41.0,86,30.11,10.0,Calm,Calm,-,N/A,,Clear,0,2013-10-12 06:53:00
3:53 AM,46.9,43.0,86,30.11,10.0,East,3.5,-,N/A,,Clear,100,2013-10-12 07:53:00
4:53 AM,46.9,44.1,90,30.12,10.0,ESE,3.5,-,N/A,,Clear,120,2013-10-12 08:53:00
5:53 AM,50.0,44.1,80,30.12,10.0,ESE,3.5,-,N/A,,Mostly Cloudy,120,2013-10-12 09:53:00
6:53 AM,48.0,44.1,86,30.14,10.0,Calm,Calm,-,N/A,,Clear,0,2013-10-12 10:53:00
7:53 AM,48.9,45.0,86,30.16,10.0,Calm,Calm,-,N/A,,Clear,0,2013-10-12 11:53:00
8:53 AM,55.9,46.0,69,30.16,10.0,SSE,4.6,-,N/A,,Clear,150,2013-10-12 12:53:00
9:53 AM,61.0,50.0,67,30.16,10.0,SSE,5.8,-,N/A,,Clear,160,2013-10-12 13:53:00
10:53 AM,64.9,52.0,63,30.15,10.0,SE,5.8,-,N/A,,Partly Cloudy,140,2013-10-12 14:53:00
11:53 AM,66.9,54.0,63,30.14,10.0,ESE,6.9,-,N/A,,Partly Cloudy,110,2013-10-12 15:53:00
12:53 PM,71.1,55.0,57,30.13,10.0,ESE,4.6,-,N/A,,Clear,120,2013-10-12 16:53:00
1:53 PM,72.0,57.0,59,30.12,10.0,ESE,4.6,-,N/A,,Clear,110,2013-10-12 17:53:00
2:53 PM,73.9,55.9,53,30.10,10.0,Variable,4.6,-,N/A,,Clear,0,2013-10-12 18:53:00
3:53 PM,75.0,55.0,50,30.09,10.0,SE,6.9,-,N/A,,Clear,140,2013-10-12 19:53:00
4:53 PM,75.0,55.9,51,30.09,10.0,SE,5.8,-,N/A,,Scattered Clouds,140,2013-10-12 20:53:00
5:53 PM,69.1,57.0,65,30.10,10.0,Calm,Calm,-,N/A,,Partly Cloudy,0,2013-10-12 21:53:00
6:53 PM,63.0,55.9,78,30.12,10.0,Calm,Calm,-,N/A,,Clear,0,2013-10-12 22:53:00
7:53 PM,61.0,55.9,83,30.14,10.0,East,4.6,-,N/A,,Partly Cloudy,100,2013-10-12 23:53:00
8:53 PM,64.0,57.0,78,30.14,10.0,SW,3.5,-,N/A,,Clear,230,2013-10-13 00:53:00
9:53 PM,64.0,57.0,78,30.13,10.0,ESE,6.9,-,N/A,,Clear,120,2013-10-13 01:53:00
10:53 PM,64.9,57.0,75,30.13,10.0,SSE,4.6,-,N/A,,Clear,160,2013-10-13 02:53:00
11:53 PM,64.0,57.0,78,30.14,10.0,SE,4.6,-,N/A,,Overcast,140,2013-10-13 03:53:00